Temp
5 5 5 5 5 5 5 5 5 5 5 5 5 4 4 4 4 3 3 3 3 3 3 3 3 3 3 2 2 2 2 2 2 2 1 1 0 0 -0 -0 -2 -2 -4 1
4 5 5 5 5 5 5 5 5 5 5 5 5 5 4 4 4 3 4 3 3 3 2 2 2 2 2 2 2 1 1 1 1 0 0 0 0 1 -0 -1 -1 -2 -3 2
4 4 4 4 5 5 5 5 5 5 5 5 5 5 5 4 4 3 3 3 3 3 3 2 2 2 2 2 1 1 0 1 1 2 1 0 -0 0 -0 -1 -2 -0 0 3
3 3 3 4 4 4 4 4 5 5 5 5 5 5 4 4 4 4 4 3 3 3 2 2 2 2 1 2 1 1 0 1 1 2 1 0 1 1 -0 -1 -0 -1 3 2
3 3 3 3 4 3 4 4 4 4 4 5 4 4 4 4 3 3 3 3 3 2 3 2 2 2 2 1 1 0 -0 -0 0 2 2 1 1 1 2 2 0 -0 2 3
3 3 3 3 3 3 3 3 3 3 3 4 4 4 4 3 3 3 3 2 2 2 2 1 1 1 1 1 0 -0 -1 -2 -2 -0 -1 -1 1 5 4 3 3 2 2 3
2 2 2 2 3 3 3 3 3 3 3 3 2 2 2 3 3 3 3 2 2 1 1 0 0 0 0 0 0 0 -0 -2 -4 -3 -2 -5 3 4 4 4 4 4 3 2
1 1 2 2 2 2 2 2 2 2 2 2 2 2 2 2 2 2 2 1 1 0 0 -0 -1 -0 -0 1 0 -0 -1 -2 -4 -4 -4 -0 3 3 3 3 3 3 2 1
-0 0 0 1 1 1 1 1 1 1 1 2 1 1 1 1 1 1 1 1 0 -0 -1 -1 -3 -1 0 0 0 1 -1 -4 -6 -6 -6 -6 2 3 2 1 0 2 1 1
-1 -1 -1 -1 -1 -0 0 1 1 1 0 0 1 0 -0 -0 -0 -0 -0 -0 -1 -1 -1 -2 -3 -2 -2 -1 0 0 -0 -2 -5 -6 -6 -4 0 1 1 -1 1 0 -0 -1
-3 -2 -2 -2 -2 -2 -1 -1 -0 -0 -0 -0 -0 -0 -0 -1 -1 -2 -2 -3 -2 -1 -2 -2 -2 -3 -2 -2 -1 -1 -0 -0 -3 -6 -7 -6 1 0 -0 1 -0 -1 -2 -2
-4 -3 -3 -3 -3 -3 -3 -3 -2 -2 -2 -1 -1 -1 -1 -2 -2 -2 -3 -3 -4 -3 -3 -3 -3 -3 -3 -3 -3 -2 -2 -1 -0 -1 0 0 1 -0 -1 -1 -2 -3 -3 -3
-6 -6 -5 -5 -5 -4 -4 -4 -4 -4 -3 -2 -2 -2 -2 -2 -3 -3 -4 -3 -4 -5 -5 -5 -5 -5 -5 -5 -4 -3 -3 -2 -2 -2 -2 -2 -2 -2 -2 -2 -4 -4 -5 -5
-6 -6 -6 -6 -6 -6 -6 -5 -5 -5 -5 -5 -3 -3 -3 -3 -4 -5 -5 -5 -4 -4 -5 -6 -6 -6 -6 -6 -5 -4 -4 -5 -4 -4 -4 -3 -3 -2 -3 -4 -4 -5 -6 -6
-6 -6 -6 -6 -6 -7 -7 -7 -7 -7 -7 -6 -5 -4 -3 -3 -4 -3 -4 -5 -5 -6 -6 -5 -5 -5 -7 -6 -6 -4 -4 -4 -6 -4 -4 -5 -5 -5 -5 -5 -5 -5 -6 -7
-7 -7 -6 -7 -7 -7 -7 -7 -7 -8 -8 -8 -7 -6 -6 -5 -4 -4 -4 -4 -5 -6 -6 -6 -6 -6 -7 -7 -6 -3 -5 -6 -6 -5 -6 -6 -6 -6 -6 -7 -6 -6 -6 -7
-7 -7 -7 -8 -7 -7 -8 -8 -9 -9 -9 -9 -9 -8 -7 -7 -7 -6 -6 -6 -5 -6 -6 -6 -6 -6 -7 -7 -6 -4 -5 -6 -7 -7 -7 -7 -7 -7 -7 -7 -6 -7 -8 -8
-10 -10 -10 -9 -9 -9 -9 -9 -9 -10 -11 -10 -9 -9 -9 -8 -8 -8 -8 -8 -7 -7 -7 -7 -7 -7 -8 -8 -6 -5 -5 -6 -7 -7 -7 -7 -7 -7 -7 -8 -8 -8 -9 -10
-12 -11 -11 -12 -11 -11 -11 -11 -11 -11 -11 -11 -10 -10 -10 -10 -9 -9 -10 -10 -10 -9 -9 -8 -8 -8 -8 -8 -7 -7 -7 -7 -7 -7 -7 -7 -8 -8 -9 -9 -11 -13 -14 -13
-13 -13 -13 -13 -13 -13 -13 -12 -12 -12 -11 -12 -11 -10 -10 -11 -11 -11 -11 -11 -10 -10 -9 -9 -9 -9 -8 -8 -8 -8 -8 -8 -8 -8 -9 -9 -11 -11 -12 -13 -14 -14 -14 -14
-14 -14 -14 -14 -14 -14 -13 -13 -13 -12 -12 -12 -11 -11 -11 -11 -12 -12 -11 -11 -11 -10 -10 -10 -9 -9 -9 -9 -10 -11 -12 -12 -13 -13 -13 -13 -14 -14 -14 -14 -14 -14 -13 -13
-15 -15 -14 -14 -14 -14 -13 -13 -13 -12 -12 -12 -12 -12 -12 -12 -12 -12 -11 -11 -11 -10 -12 -10 -11 -13 -13 -13 -13 -13 -13 -14 -13 -14 -14 -15 -14 -14 -13 -13 -13 -13 -13 -13
-15 -15 -15 -14 -15 -14 -14 -13 -13 -12 -13 -13 -13 -13 -13 -13 -13 -13 -13 -12 -12 -12 -11 -12 -14 -14 -14 -14 -14 -13 -14 -14 -14 -14 -14 -13 -13 -13 -13 -13 -14 -14 -14 -14
-16 -15 -15 -15 -14 -14 -14 -14 -14 -14 -14 -14 -13 -13 -14 -14 -14 -13 -13 -13 -12 -12 -11 -11 -12 -14 -14 -14 -14 -14 -14 -14 -14 -13 -13 -13 -14 -14 -14 -14 -14 -14 -14 -14
-16 -16 -15 -15 -14 -14 -14 -15 -15 -15 -15 -14 -14 -14 -14 -14 -14 -14 -13 -13 -12 -12 -12 -12 -13 -14 -14 -15 -14 -14 -14 -14 -14 -14 -14 -14 -14 -14 -14 -14 -14 -14 -14 -15
-16 -16 -15 -15 -15 -15 -15 -15 -15 -15 -15 -15 -15 -15 -14 -14 -14 -13 -13 -13 -13 -12 -13 -13 -14 -14 -14 -14 -15 -14 -14 -14 -14 -14 -14 -14 -14 -14 -14 -14 -14 -15 -15 -15
-17 -16 -15 -15 -15 -15 -15 -15 -15 -16 -16 -16 -16 -15 -14 -14 -14 -14 -14 -14 -14 -14 -14 -14 -14 -15 -15 -15 -15 -15 -15 -14 -14 -15 -15 -15 -15 -15 -15 -15 -15 -15 -16 -16
Height
3145 3144 3143 3143 3142 3138 3139 3137 3136 3134 3132 3134 3132 3132 3131 3132 3133 3133 3133 3133 3133 3132 3133 3133 3133 3133 3133 3132 3132 3132 3133 3131 3130 3130 3129 3128 3129 3129 3130 3130 3130 3128 3128 3114
3146 3144 3144 3143 3141 3141 3139 3138 3138 3137 3136 3135 3133 3133 3133 3133 3132 3133 3133 3133 3133 3132 3133 3133 3131 3131 3131 3131 3131 3130 3130 3129 3128 3126 3127 3124 3123 3123 3124 3125 3125 3122 3125 3111
3148 3146 3144 3142 3142 3141 3139 3139 3138 3138 3137 3136 3135 3134 3133 3132 3131 3131 3131 3131 3130 3131 3131 3131 3130 3130 3129 3129 3129 3129 3128 3126 3126 3125 3123 3123 3121 3120 3120 3120 3118 3113 3106 3103
3146 3145 3144 3144 3140 3140 3141 3139 3138 3138 3137 3135 3134 3133 3133 3132 3131 3130 3129 3128 3128 3128 3128 3128 3127 3127 3127 3126 3126 3125 3125 3122 3121 3120 3119 3116 3115 3114 3113 3109 3109 3106 3100 3097
3143 3141 3141 3140 3139 3138 3138 3138 3137 3135 3134 3133 3133 3132 3130 3129 3129 3129 3127 3126 3125 3126 3125 3125 3124 3123 3123 3123 3123 3122 3120 3118 3115 3111 3112 3109 3104 3104 3102 3100 3097 3094 3095 3091
3138 3138 3137 3136 3135 3135 3134 3133 3132 3131 3130 3129 3128 3128 3126 3126 3125 3125 3124 3124 3122 3121 3122 3120 3120 3119 3119 3118 3117 3117 3117 3115 3113 3106 3104 3103 3098 3091 3091 3090 3088 3087 3086 3087
3132 3131 3131 3131 3130 3130 3129 3128 3128 3126 3125 3125 3124 3123 3122 3121 3120 3120 3119 3119 3119 3119 3117 3117 3115 3113 3112 3110 3109 3109 3108 3110 3112 3107 3104 3099 3087 3085 3085 3083 3082 3081 3080 3081
3125 3125 3124 3124 3124 3124 3123 3123 3122 3120 3119 3119 3119 3118 3117 3116 3115 3114 3113 3113 3113 3112 3112 3110 3108 3108 3105 3102 3101 3100 3100 3100 3100 3100 3096 3087 3087 3083 3080 3076 3076 3075 3073 3075
3118 3118 3118 3118 3118 3117 3116 3116 3115 3114 3114 3114 3113 3111 3111 3110 3108 3108 3107 3107 3106 3107 3106 3104 3101 3100 3099 3096 3093 3093 3093 3094 3098 3093 3088 3077 3073 3073 3074 3072 3063 3067 3066 3065
3110 3110 3110 3109 3109 3109 3110 3108 3108 3105 3104 3106 3105 3105 3104 3102 3102 3100 3101 3099 3100 3100 3096 3096 3095 3091 3092 3089 3086 3087 3087 3086 3084 3087 3081 3064 3069 3068 3066 3066 3060 3057 3058 3058
3101 3100 3101 3100 3099 3100 3100 3100 3099 3098 3094 3096 3097 3097 3097 3094 3094 3093 3092 3094 3091 3091 3090 3088 3086 3082 3081 3078 3076 3077 3076 3075 3071 3071 3072 3060 3060 3058 3058 3057 3054 3053 3051 3050
3089 3090 3090 3090 3088 3088 3088 3091 3088 3086 3084 3086 3086 3088 3088 3085 3086 3085 3082 3082 3086 3083 3081 3080 3077 3074 3071 3071 3066 3068 3065 3064 3063 3059 3051 3055 3054 3052 3051 3048 3046 3043 3041 3039
3079 3079 3080 3079 3079 3078 3079 3080 3080 3077 3073 3073 3072 3077 3075 3073 3074 3075 3071 3072 3076 3074 3074 3072 3070 3065 3064 3060 3056 3057 3052 3054 3050 3051 3042 3047 3048 3045 3044 3040 3035 3032 3029 3027
3069 3070 3070 3070 3071 3070 3069 3069 3070 3069 3065 3057 3059 3063 3065 3066 3066 3065 3064 3064 3064 3063 3063 3060 3056 3054 3052 3046 3048 3040 3041 3044 3040 3033 3036 3040 3037 3036 3034 3031 3026 3022 3018 3015
3060 3060 3060 3060 3060 3060 3061 3060 3060 3060 3061 3050 3044 3049 3058 3055 3053 3055 3053 3052 3052 3052 3051 3047 3041 3038 3040 3034 3033 3016 3026 3024 3026 3018 3028 3025 3023 3021 3020 3018 3016 3012 3007 3004
3049 3050 3050 3050 3049 3050 3050 3051 3051 3052 3050 3044 3035 3030 3036 3042 3043 3042 3043 3043 3042 3040 3038 3034 3028 3028 3030 3022 3011 3005 3012 3013 3013 3008 3012 3011 3008 3007 3005 3002 2999 2997 2994 2991
3039 3040 3039 3040 3040 3039 3040 3042 3041 3041 3041 3039 3032 3025 3023 3026 3031 3033 3033 3032 3032 3029 3026 3020 3020 3017 3018 3007 2996 3004 3003 3003 3003 3001 2998 2997 2995 2991 2989 2988 2986 2983 2982 2981
3030 3029 3028 3027 3028 3029 3030 3029 3028 3031 3032 3033 3028 3020 3020 3019 3020 3021 3022 3021 3020 3015 3014 3011 3007 3007 3002 2993 2988 2994 2993 2992 2990 2987 2983 2981 2980 2978 2976 2973 2972 2972 2971 2970
3022 3022 3020 3020 3020 3020 3020 3020 3020 3021 3025 3021 3019 3015 3017 3012 3012 3013 3013 3012 3008 3006 3002 3000 2999 2994 2988 2986 2985 2983 2982 2980 2979 2977 2974 2970 2967 2964 2963 2962 2962 2964 2965 2965
3017 3017 3016 3013 3013 3012 3014 3013 3013 3013 3013 3011 3008 3012 3011 3012 3007 3004 3007 3001 2999 2993 2991 2991 2984 2981 2983 2981 2978 2975 2971 2969 2964 2962 2961 2959 2957 2957 2956 2956 2957 2958 2958 2957
3014 3011 3011 3010 3008 3008 3008 3007 3008 3009 3010 3007 3008 3008 3007 3006 3006 3001 2997 2993 2991 2986 2985 2982 2978 2976 2974 2972 2969 2965 2960 2959 2957 2955 2956 2956 2956 2956 2954 2954 2954 2953 2952 2949
3010 3008 3006 3005 3005 3005 3006 3005 3006 3006 3006 3005 3005 3007 3005 3001 3000 2998 2996 2989 2984 2980 2979 2974 2972 2970 2967 2966 2964 2962 2959 2957 2956 2956 2955 2955 2956 2954 2951 2949 2947 2945 2942 2938
3007 3006 3003 3001 3002 3003 3004 3004 3004 3004 3002 3001 3001 3000 3000 2997 2997 2995 2994 2990 2982 2978 2975 2973 2972 2968 2967 2965 2963 2962 2960 2956 2956 2955 2954 2951 2949 2947 2945 2941 2939 2935 2930 2928
3004 3002 3002 3001 2999 3001 3001 3001 2999 3000 3000 2997 2994 2996 2997 2994 2993 2991 2988 2984 2979 2975 2973 2971 2971 2966 2964 2962 2960 2957 2955 2955 2954 2952 2948 2944 2941 2938 2935 2932 2928 2923 2919 2916
3001 3002 2997 2995 2997 2998 2998 2996 2996 2997 2995 2992 2990 2990 2990 2988 2986 2984 2981 2977 2974 2972 2970 2968 2966 2961 2960 2958 2955 2953 2950 2947 2944 2942 2938 2935 2931 2927 2922 2920 2916 2913 2908 2904
2996 2995 2995 2994 2993 2995 2994 2993 2991 2991 2989 2987 2986 2983 2981 2979 2977 2976 2973 2971 2967 2965 2965 2963 2959 2955 2954 2951 2947 2943 2940 2937 2934 2931 2928 2924 2919 2914 2910 2907 2904 2900 2895 2890
2989 2990 2990 2988 2987 2987 2987 2986 2986 2984 2983 2981 2980 2978 2976 2973 2969 2967 2965 2963 2963 2961 2958 2955 2951 2947 2943 2940 2937 2934 2931 2928 2925 2921 2917 2912 2908 2903 2898 2894 2892 2887 2883 2879
Wind_Speed
12 13 14 16 16 15 17 15 14 12 11 10 9 9 7 7 4 3 4 4 5 5 4 5 5 5 5 3 4 6 7 7 6 9 11 13 12 12 11 6 5 7 3 15
8 9 11 11 12 14 14 14 12 14 12 11 11 8 6 5 4 5 6 7 7 5 5 4 5 6 6 6 6 4 4 5 4 4 5 7 11 10 13 15 14 14 4 10
7 8 8 9 11 11 11 13 11 13 9 12 12 11 8 7 6 7 8 8 7 8 8 8 7 7 7 7 8 10 11 11 12 10 9 12 14 16 16 17 13 18 29 33
12 10 11 12 9 10 13 11 11 11 11 12 12 13 12 11 9 9 9 9 9 10 8 9 12 12 12 12 12 13 13 16 18 18 20 24 25 25 27 31 31 28 31 32
17 17 16 15 14 15 15 14 13 12 14 14 13 13 13 14 14 14 13 12 13 14 15 15 17 15 15 16 17 15 16 15 18 27 22 23 27 24 26 31 35 40 33 31
20 20 20 19 18 19 20 19 18 18 16 16 15 15 16 17 16 17 15 15 15 16 15 19 19 20 20 21 20 20 22 22 17 15 15 15 25 27 19 25 27 31 32 22
25 24 24 23 23 23 24 23 22 20 21 20 18 17 17 17 20 21 21 20 21 20 18 19 22 24 25 25 26 26 27 25 17 16 23 4 19 18 16 18 22 21 24 18
26 27 26 26 25 25 24 25 25 25 25 24 22 20 20 20 21 22 23 23 23 23 23 23 21 24 27 30 29 30 31 29 17 8 12 25 26 24 28 28 24 24 23 28
26 26 27 28 29 28 28 26 26 27 26 26 25 21 20 21 22 23 24 24 24 24 25 24 14 11 17 11 7 12 22 28 27 15 9 9 12 19 16 25 33 31 19 20
31 30 29 28 28 29 29 30 30 29 28 26 26 26 24 23 23 25 25 25 24 23 25 27 26 25 24 16 21 20 23 28 33 33 16 19 25 32 31 18 26 16 19 20
33 33 33 33 33 34 32 32 33 33 35 31 31 30 30 31 29 28 26 25 25 26 27 27 28 22 26 29 33 30 32 25 27 21 15 20 25 23 23 23 24 27 30 31
35 35 35 33 33 33 33 32 35 38 39 38 36 33 33 34 31 32 35 34 24 16 16 16 15 21 23 25 30 29 38 39 33 33 32 26 25 26 30 30 33 33 34 35
30 30 29 27 28 31 32 31 32 36 41 43 41 34 34 36 35 36 43 40 33 36 36 38 37 38 32 33 36 37 39 34 37 40 48 41 39 39 36 36 38 40 39 43
31 32 34 32 30 30 30 30 29 32 35 42 42 34 29 27 27 23 25 30 32 36 38 38 43 48 42 46 44 50 49 42 44 50 48 46 48 46 44 43 46 47 44 46
32 34 34 34 33 33 32 32 31 30 30 39 48 42 34 37 37 33 35 32 33 33 36 41 48 49 43 51 55 66 60 58 52 58 45 44 46 46 45 41 44 52 50 49
33 32 32 34 36 36 35 35 35 31 31 37 43 40 43 42 42 41 39 39 38 39 42 46 48 48 45 39 55 61 53 49 44 45 32 33 36 36 45 50 48 50 50 42
35 36 36 34 34 34 31 30 31 30 27 29 34 25 18 9 10 19 24 22 25 28 34 43 45 46 41 47 58 53 53 53 44 34 36 40 46 51 55 55 45 37 34 30
29 30 32 33 33 33 29 27 30 28 25 25 22 31 38 39 37 31 27 26 27 33 34 40 44 45 46 46 54 51 49 47 47 48 49 47 46 49 44 28 30 26 23 17
23 24 25 25 23 22 20 20 23 24 23 22 26 33 29 18 20 23 31 33 34 36 37 40 41 43 36 42 45 47 43 39 36 40 46 41 30 24 22 21 11 8 10 13
20 19 19 17 12 12 15 16 16 19 21 26 31 32 36 33 34 34 31 23 20 22 28 27 34 39 35 41 46 41 40 37 34 29 24 20 12 10 9 8 9 16 20 22
17 18 16 13 15 16 11 7 4 4 6 8 9 10 14 11 16 20 14 14 15 18 24 25 27 27 28 25 22 8 4 6 5 2 7 19 21 22 22 23 24 24 26 29
17 17 17 14 9 5 5 4 4 6 6 4 11 15 17 20 23 19 15 15 7 4 24 10 2 7 11 13 18 21 25 32 25 25 25 30 27 25 26 27 26 26 28 31
17 15 11 5 3 6 4 3 5 4 6 11 13 17 19 16 12 13 11 8 13 31 10 2 19 20 26 24 30 29 24 26 30 27 29 32 31 29 28 30 29 30 32 33
16 12 6 4 4 6 8 9 10 14 18 21 23 25 21 22 20 15 8 16 16 7 13 21 23 20 19 23 22 21 23 25 30 32 34 35 35 34 33 33 34 35 37 40
13 8 5 7 9 10 14 14 21 21 23 21 21 22 23 23 17 14 12 8 8 13 25 32 27 20 23 24 24 26 29 33 37 38 37 37 37 38 39 39 40 41 42 40
13 11 11 14 18 18 21 20 21 16 14 17 21 20 12 12 10 13 17 15 24 33 33 30 27 29 28 30 31 34 37 39 39 38 39 39 40 41 42 44 42 40 37 37
10 16 17 17 18 16 15 17 16 16 19 17 16 8 9 11 11 20 22 26 30 30 28 34 33 37 40 37 37 38 40 40 40 40 39 41 40 40 40 40 38 35 34 36
Wind_Direction
41 37 40 32 26 38 26 24 33 32 47 41 36 29 23 6 341 301 290 283 277 270 269 284 264 257 253 271 263 272 269 274 264 262 266 262 252 247 238 214 217 221 239 279
25 29 23 24 28 17 19 18 19 19 20 21 21 23 12 352 326 315 312 300 299 291 282 284 284 269 271 269 263 259 262 250 269 264 265 262 253 254 245 240 247 247 199 260
350 356 5 11 6 9 14 10 6 4 8 0 358 351 348 334 315 291 288 277 278 279 281 275 275 296 280 283 275 273 276 264 249 262 286 286 272 271 261 243 240 247 252 282
319 324 336 338 347 357 354 356 348 346 333 335 334 332 321 314 303 293 288 283 275 268 268 278 275 273 273 271 278 280 273 274 276 275 275 277 275 274 269 258 259 250 279 282
305 308 314 319 320 327 333 333 325 322 323 322 314 308 305 300 296 289 285 279 275 273 270 270 272 276 276 275 279 277 269 273 283 288 285 280 278 272 263 265 264 261 266 284
291 293 297 303 305 308 314 316 315 313 310 307 302 299 290 289 287 288 284 279 277 275 272 266 270 273 274 271 273 273 273 275 284 286 289 287 284 289 264 267 275 274 253 299
283 284 286 289 293 298 302 303 304 300 299 299 297 289 283 279 278 276 280 280 280 281 278 273 272 272 272 270 271 272 268 270 277 283 290 243 277 262 266 270 274 271 276 283
279 281 282 284 287 290 292 293 292 291 291 293 291 286 282 279 275 272 273 274 275 277 278 278 278 282 278 273 266 260 259 253 240 237 245 276 274 266 275 270 278 274 275 282
276 279 282 286 287 287 285 285 283 283 283 285 286 284 280 278 277 275 274 275 275 275 275 268 254 252 271 260 251 248 248 247 241 231 240 228 251 274 261 287 279 280 278 278
280 281 279 279 280 282 282 281 276 273 275 273 275 277 279 276 275 275 277 274 274 270 263 258 258 260 251 250 255 259 250 240 234 241 255 266 264 272 276 260 276 286 293 279
275 274 275 278 281 280 275 273 274 273 272 272 273 272 275 275 273 270 271 273 265 267 258 257 263 255 258 257 258 254 254 245 234 230 232 266 292 252 245 274 280 282 289 284
278 275 276 276 273 272 272 269 270 272 274 273 269 271 275 271 268 267 263 259 252 252 251 249 254 253 258 262 258 258 246 248 254 246 263 276 271 283 292 284 276 279 277 273
283 280 286 275 273 273 274 274 275 276 277 279 277 272 265 264 266 263 263 262 261 257 258 261 265 265 269 264 266 269 258 256 259 266 273 276 271 276 280 287 279 278 277 281
271 273 277 277 276 278 279 278 279 279 280 283 282 274 267 263 270 273 275 280 269 262 258 263 266 266 267 266 267 266 267 269 268 270 272 277 275 276 283 279 277 278 276 281
269 270 271 272 274 275 276 280 283 281 279 279 285 280 277 279 277 275 274 271 264 259 255 266 273 274 265 269 271 269 269 272 269 277 282 273 275 277 276 268 269 275 279 283
273 272 272 271 271 273 275 277 276 276 273 281 287 292 292 283 280 278 273 272 267 260 266 270 271 272 265 264 269 277 275 281 284 286 284 265 264 269 275 275 268 269 278 284
275 276 276 275 274 274 274 275 279 275 277 279 289 292 297 305 294 289 290 275 266 268 268 269 276 275 261 260 269 281 282 283 281 269 265 268 274 274 281 277 270 281 286 277
280 280 280 279 278 277 273 267 270 270 264 258 260 266 280 290 294 293 285 276 273 274 279 282 279 280 272 260 275 288 290 287 282 284 283 280 277 275 270 266 271 272 285 292
289 287 284 286 289 288 284 274 267 267 259 249 257 268 284 284 289 290 291 291 282 285 274 279 278 274 261 273 281 284 283 283 280 279 277 271 254 251 264 282 296 312 317 310
300 297 297 296 298 298 295 287 285 274 266 254 261 271 271 281 285 291 294 291 275 268 275 278 266 259 279 285 279 277 279 274 259 241 232 242 257 269 269 280 309 327 326 320
305 304 302 294 289 295 303 275 246 243 250 277 295 302 297 307 316 320 312 288 279 275 289 274 277 274 269 267 261 211 127 195 97 113 31 8 3 354 347 340 332 321 316 313
299 311 311 311 303 262 240 232 217 234 242 291 315 307 303 311 323 316 310 276 252 248 336 260 331 13 91 359 335 351 340 351 352 353 339 349 345 335 328 324 316 305 303 304
297 302 319 303 232 228 228 220 229 247 289 283 304 310 310 320 322 310 300 279 300 316 313 336 358 352 350 348 343 333 342 340 341 336 329 325 322 319 316 312 309 306 305 308
290 298 271 251 225 226 200 226 284 310 303 294 291 294 297 296 302 295 263 286 299 273 278 295 319 322 325 324 326 324 324 317 310 310 309 308 310 310 310 309 308 306 308 309
279 265 248 230 232 259 280 299 314 310 311 308 310 306 301 297 280 270 266 261 256 280 293 305 312 303 313 315 304 300 294 296 299 303 306 309 309 308 308 309 307 308 306 302
261 242 259 286 286 283 282 289 300 292 289 290 298 302 282 275 256 263 266 262 263 285 299 305 295 305 305 301 294 290 292 296 302 306 308 309 308 308 306 304 304 304 300 299
261 277 286 293 303 302 297 286 295 285 280 291 296 274 278 270 257 266 268 275 291 298 300 297 294 299 302 300 299 298 299 300 302 305 307 306 307 305 306 306 306 301 300 302